Molokai, HI

2:04 PM HST on October 20, 2017 (GMT -1000)
Molokai

Weather History for PHMK - September, 2013

Change the Weather History Date:

Sunday, September 1, 2013

  Actual Average Record
Temperature  
Mean Temperature 77 °F -  
Max Temperature 82 °F 85 °F 91 °F (1979)
Min Temperature 72 °F 70 °F 61 °F (1984)
Cooling Degree Days 12    
Growing Degree Days 27 (Base 50)    
Moisture  
Dew Point 68 °F    
Average Humidity 75    
Maximum Humidity 87    
Minimum Humidity 60    
Precipitation  
Precipitation 0.01 in - - ()
Sea Level Pressure  
Sea Level Pressure 30.01 in    
Wind  
Wind Speed 13 mph (NE)    
Max Wind Speed 22 mph    
Max Gust Speed 30 mph    
Visibility 10 miles    
Events Rain    
Averages and records for this station are not official NWS values.
T = Trace of Precipitation, MM = Missing Value Source: NWS Daily Summary

Daily Weather History Graph

Daily Weather History Graph

Search for Another Location

Airport or City:

Trip Planner

Search our weather history database for the weather conditions in past years. The results will help you decide how hot, cold, wet, or windy it might be!

Date:

Astronomy

Sep. 01, 2013 Rise Set
Actual Time 6:12 AM HST 6:43 PM HST
Civil Twilight 5:49 AM HST 7:06 PM HST
Nautical Twilight 5:23 AM HST 7:32 PM HST
Astronomical Twilight 4:56 AM HST 7:59 PM HST
Moon 3:00 AM HST (9/1) 4:14 PM HST (9/1)
Length of Visible Light 13h 16m
Length of Day
12h 31m
Waning Crescent, 12% of the Moon is Illuminated
Sep 1
Waning Crescent
Sep 5
New
Sep 12
First Quarter
Sep 19
Full
Sep 26
Last Quarter

Hourly Weather History & Observations

Time (HST) Temp. Heat Index Dew Point Humidity Pressure Visibility Wind Dir Wind Speed Gust Speed Precip Events Conditions
12:54 AM 73.9 °F - 68.0 °F 82% 30.01 in 10.0 mi NNE 9.2 mph - N/A   Clear
1:54 AM 73.9 °F - 68.0 °F 82% 30.01 in 10.0 mi NE 11.5 mph 18.4 mph N/A   Clear
2:54 AM 73.9 °F - 68.0 °F 82% 30.00 in 10.0 mi NE 12.7 mph 19.6 mph N/A   Clear
3:54 AM 73.0 °F - 64.9 °F 76% 30.00 in 10.0 mi NE 12.7 mph 21.9 mph N/A   Scattered Clouds
4:54 AM 72.0 °F - 63.0 °F 73% 30.01 in 10.0 mi ENE 11.5 mph - N/A   Clear
5:54 AM 73.0 °F - 64.9 °F 76% 30.02 in 10.0 mi NE 9.2 mph - N/A   Scattered Clouds
6:54 AM 73.9 °F - 66.0 °F 76% 30.03 in 10.0 mi NE 9.2 mph - N/A   Partly Cloudy
7:54 AM 75.0 °F - 66.9 °F 76% 30.04 in 10.0 mi NE 12.7 mph - N/A   Partly Cloudy
8:54 AM 79.0 °F - 68.0 °F 69% 30.05 in 10.0 mi NNE 15.0 mph 26.5 mph 0.00 in   Scattered Clouds
9:54 AM 80.1 °F 82.3 °F 66.9 °F 64% 30.05 in 10.0 mi NE 16.1 mph 26.5 mph N/A   Mostly Cloudy
10:54 AM 82.9 °F 85.8 °F 68.0 °F 60% 30.04 in 10.0 mi NE 17.3 mph 26.5 mph N/A   Mostly Cloudy
11:54 AM 75.9 °F - 72.0 °F 87% 30.02 in 10.0 mi NE 16.1 mph 21.9 mph 0.01 in   Mostly Cloudy
12:54 PM 79.0 °F - 69.1 °F 72% 30.01 in 10.0 mi NE 13.8 mph 28.8 mph N/A   Scattered Clouds
1:54 PM 82.9 °F 85.8 °F 68.0 °F 60% 29.98 in 10.0 mi NE 20.7 mph 26.5 mph N/A   Partly Cloudy
2:54 PM 82.0 °F 85.5 °F 69.1 °F 65% 29.97 in 10.0 mi NE 20.7 mph 28.8 mph 0.00 in   Scattered Clouds
3:54 PM 82.0 °F 84.5 °F 66.9 °F 60% 29.96 in 10.0 mi NE 21.9 mph 28.8 mph 0.00 in   Scattered Clouds
4:54 PM 80.1 °F 82.3 °F 66.9 °F 64% 29.97 in 10.0 mi NE 16.1 mph 29.9 mph 0.00 in Rain Light Rain
5:54 PM 78.1 °F - 66.0 °F 66% 29.99 in 10.0 mi NE 16.1 mph 25.3 mph 0.00 in   Partly Cloudy
6:54 PM 75.0 °F - 68.0 °F 79% 30.00 in 10.0 mi ENE 11.5 mph 21.9 mph N/A   Clear
7:54 PM 75.0 °F - 68.0 °F 79% 30.02 in 10.0 mi ENE 13.8 mph 17.3 mph N/A   Clear
8:54 PM 73.9 °F - 68.0 °F 82% 30.03 in 10.0 mi ENE 10.4 mph - N/A   Clear
9:54 PM 73.9 °F - 70.0 °F 87% 30.04 in 10.0 mi ENE 13.8 mph - 0.00 in Rain Light Rain
10:54 PM 73.9 °F - 69.1 °F 85% 30.04 in 10.0 mi NE 12.7 mph 23.0 mph N/A   Clear
11:54 PM 73.9 °F - 70.0 °F 87% 30.03 in 10.0 mi ENE 10.4 mph 25.3 mph N/A   Partly Cloudy